Regional Weather Roundup
Issued by NWS Charleston, SC

Current Version | Previous Version | Text Only | Print | Product List | Glossary Off
Versions: 1 2 3 4 5 6 7 8 9 10 11 12 13 14 15 16 17 18 19 20 21 22 23 24 25 26 27 28 29 30 31 32 33 34 35 36 37 38 39 40 41 42 43 44 45 46 47 48 49 50
000 ASUS42 KCHS 220310 RWRCHS REGIONAL WEATHER ROUNDUP NATIONAL WEATHER SERVICE CHARLESTON SC 1100 PM EDT TUE OCT 21 2014 NOTE: "FAIR" INDICATES FEW OR NO CLOUDS BELOW 12,000 FEET WITH NO SIGNIFICANT WEATHER AND/OR OBSTRUCTIONS TO VISIBILITY. NOT ALL STATIONS ARE QUALITY CONTROLLED BY THE NATIONAL WEATHER SERVICE. USE DATA WITH CAUTION...ESPECIALLY DEWPOINT OBSERVATIONS. SCZ027-030-031-034>040-042>050-220400- ...SOUTH CAROLINA... CITY SKY/WX TMP DP RH WIND PRES REMARKS N CHARLESTON CLEAR 66 59 78 W5 29.92F WATERFRONT PRK NOT AVBL FORT JOHNSON NOT AVBL JOHNS ISLAND CLEAR 63 63 100 CALM 29.93S PINOPOLIS NOT AVBL MONCKS CORNER FAIR 59 57 94 CALM 29.92S SUMMERVILLE FAIR 57 57 100 CALM 29.93S BEAUFORT MCAS CLEAR 61 56 83 SW6 29.94R BEAUFORT ARPT FAIR 63 61 94 SW3 29.94R HILTON HEAD IS NOT AVBL GEORGETOWN NOT AVBL WALTERBORO CLEAR 59 N/A N/A CALM 29.94S ORANGEBURG CLEAR 58 53 84 NW8 29.94R BARNWELL FAIR 57 52 82 W3 29.96S AIKEN FAIR 61 50 67 NW6 30.00S MANNING FAIR 59 59 100 N3 29.93R KINGSTREE NOT AVBL COLUMBIA CLEAR 64 46 52 N5 29.95R SUMTER CLEAR 63 50 61 N12 29.93R FLORENCE CLEAR 64 47 53 N13 29.93R MYRTLE BEACH PTCLDY 64 55 72 SW8 29.90 N MYRTLE BEACH PTCLDY 61 57 87 W3 29.89F $$ GAZ063-065-086>088-099>101-113>116-118-119-134-136>141-150-220400- ...GEORGIA... CITY SKY/WX TMP DP RH WIND PRES REMARKS SAVANNAH ARPT CLEAR 63 56 78 W5 29.96R HUNTER AAF CLEAR 63 56 78 W6 29.94R FORT STEWART CLEAR 60 54 80 CALM 29.96R STATESBORO NOT AVBL SYLVANIA CLEAR 61 58 88 CALM 29.97R CLAXTON FAIR 55 55 100 CALM 29.97S THOMSON CLEAR 59 55 87 CALM 30.03R AUGUSTA-BUSH CLEAR 63 48 58 W8 29.96R AUGUSTA-DANIEL CLEAR 66 48 52 NW9 29.97R SWAINSBORO FAIR 59 54 82 MISG 29.98S FOG VIDALIA CLEAR 59 54 82 CALM 29.99R ALMA CLEAR 57 54 89 CALM 29.98R WAYCROSS CLEAR 61 59 91 CALM 29.98S JESUP FAIR 59 57 94 CALM 29.98R BRUNSWICK CLEAR 59 55 88 W5 29.98R SAINT SIMONS CLEAR 64 59 83 W3 29.97R $$ SCZ027-028-034-036>038-045-046-048>050-GAZ119-141-220400- ...LAKE AND SUPPLEMENTAL COASTAL OBSERVATIONS... STATION/POSITION TIME TEMP WIND PRES WAVE SWELL AIR SEA DIR/SP/G HT/PER HT/PER/DIR (UTC) (F) (DEG/KT/KT) (MB) (FT/S) (FT/S/D) UPR LAKE MARION NOT AVBL WINYAH BAY 0200 65 280/ 1 1012.0S LAKE MURRAY 0200 65 360/ 3/ 7 1013.9R ACE BASIN NERRS 0200 63 CALM 1013.0S FORT PULASKI 0300 69 260/ 5/ 6 1014.6R SAPELO ISLAND NOT AVBL $$ ANZ835-935-AMZ111-154-330-350-352-354-374-450-454-472-220400- ...C-MAN AND BUOY OBSERVATIONS... STATION/POSITION TIME TEMP WIND PRES WAVE SWELL AIR SEA DIR/SP/G HT/PER HT/PER/DIR (UTC) (F) (DEG/KT/KT) (MB) (FT/S) (FT/S/D) FOLLY BEACH CMAN 0200 69 260/ 4/ 5 1013.7R BUOY 41004 0300 76 79 250/ 14/ 17 1013.0R 3/ 3 2/ 9 BUOY 41008 0300 76 76 270/ 8/ 10 1014.5R 1/ 9 2/ 90/ 9 5E ST. MARYS GA 0300 78 N/A 1/ 9 FRYING PAN BUOY 0300 74 75 250/ 16/ 17 1013.0S 3/ 3 2/110/ 8 BUOY 41025 0300 72 270/ 16/ 17 1010.6R 4/ 4 2/ 90/11 CAPE LOOKOUT NC 0200 71 260/ 11/ 13 1011.3R BUOY 41002 0223 78 80 250/ 12/ 16 1012.8R 3/10 2/110/10 BUOY 41010 0300 78 80 220/ 6/ 8 1014.5S 3/ 9 2/ 80/ 9 BUOY 41012 NOT AVBL ST AUGUSTINE FL 0300 72 220/ 5/ 6 1015.2R CAPERS NEARSHORE 0200 73 260/ 12/ 14 N/A FRIPP NEARSHORE NOT AVBL $$

USA.gov is the U.S. government's official web portal to all federal, state and local government web resources and services.